Regional Weather Roundup
Issued by NWS

Home | Current Version | Previous Version | Graphics & Text | Print | Product List | Glossary On
Versions: 1 2 3 4 5 6 7 8 9 10 11 12 13 14 15 16 17 18 19 20 21 22 23 24 25 26 27 28 29 30 31 32 33 34 35 36 37 38 39 40 41 42 43 44 45 46 47 48 49 50
000
ASUS43 KMPX 260001
RWRMN
WEATHER ROUNDUP FOR MINNESOTA
NATIONAL WEATHER SERVICE TWIN CITIES/CHANHASSEN MN
700 PM CDT MON SEP 25 2017


NOTE: "FAIR" INDICATES FEW OR NO CLOUDS BELOW 12,000 FEET WITH NO
SIGNIFICANT WEATHER AND/OR OBSTRUCTIONS TO VISIBILITY. N/A MEANS
CURRENT SKY AND/OR WEATHER CONDITIONS ARE NOT AVAILABLE.

MNZ060>063-068>070-260100-
   Twin Cities Metro

CITY           SKY/WX    TMP DP  RH WIND       PRES   REMARKS
TWIN CITIES    LGT RAIN  60  57  89 N10G23    29.97F
6HR MIN TEMP:  60; 6HR MAX TEMP:  63; 6HR PCP: TRACE;

ST PAUL        CLOUDY    60  57  89 N8        29.98F
CRYSTAL        CLOUDY    59  52  77 N6        29.97F
BLAINE         CLOUDY    61  57  88 N8        29.98F
LAKEVILLE      CLOUDY    59  57  94 N7        29.96F
EDEN PRAIRIE   LGT RAIN  60  56  86 N10       29.96F
6HR MIN TEMP:  60; 6HR MAX TEMP:  62; 6HR PCP: TRACE;

SOUTH ST PAUL  CLOUDY    61  57  86 N8        29.97F
LAKE ELMO      CLOUDY    59  55  88 N5        29.99S
$$
MNZ001>005-007-008-013>017-022>024-027-028-260100-
   Northwest Minnesota

CITY           SKY/WX    TMP DP  RH WIND       PRES   REMARKS
BEMIDJI        CLOUDY    52  50  92 N5        30.07R
HALLOCK          N/A     54  48  82 N9        30.12S
ROSEAU           N/A     52  46  82 N9        30.11S
THIEF RVR FALL CLOUDY    54  46  76 N8        30.12R
CROOKSTON      CLOUDY    54  48  82 N8        30.11S
FOSSTON        CLOUDY    52  48  87 N8        30.09S
DETROIT LAKES  CLOUDY    52  48  87 N5        30.09R
MOORHEAD       CLOUDY    52  48  87 N6        30.10R
PARK RAPIDS    CLOUDY    55  49  80 N10       30.06R
MAHNOMEN       CLOUDY    52  47  83 N6        30.09R
$$
MNZ006-009>011-018-025>026-260100-
   North Central Minnesota

CITY           SKY/WX    TMP DP  RH WIND       PRES   REMARKS
BAUDETTE       CLOUDY    52  50  93 N7        30.10R
FLAG ISLAND    CLOUDY    54  46  76 N9        30.11R
INTL FALLS     CLOUDY    53  48  83 N5        30.07S
6HR MIN TEMP:  53; 6HR MAX TEMP:  57; 6HR PCP: TRACE;

WASKISH        CLOUDY    52  48  87 N5        30.09R
BIG FORK       CLOUDY    54  48  82 N6        30.07R
LONGVILLE      CLOUDY    54  52  94 N7        30.04S
GRAND RAPIDS   CLOUDY    55  50  83 N8        30.05F
CRANE LAKE     CLOUDY    54  52  94 N5        30.08R
ORR            CLOUDY    54  48  82 CALM      30.04R
WALKER         CLOUDY    52  50  93 N6        30.06R
$$
MNZ012-019>021-037-260100-
   Northeast Minnesota

CITY           SKY/WX    TMP DP  RH WIND       PRES   REMARKS
DULUTH         CLOUDY    56  55  97 N6        30.01S
6HR MIN TEMP:  55; 6HR MAX TEMP:  56; 6HR PCP:  0.02;

ELY            CLOUDY    55  54  94 CALM      30.04R
HIBBING        CLOUDY    54  51  90 N8        30.04R
EVELETH        CLOUDY    55  54  96 N5        30.05R
GRAND MARAIS     N/A     63  54  72 VRB5      29.99R
$$
MNZ029>031-032-039>041-046>048-054>057-064-260100-
   West Central Minnesota

CITY           SKY/WX    TMP DP  RH WIND       PRES   REMARKS
FERGUS FALLS   CLOUDY    54  50  87 N8        30.05F
WHEATON        DRIZZLE   50  46  87 N10       30.08F
ALEXANDRIA     CLOUDY    56  49  77 NE7       30.04S
ELBOW LAKE     CLOUDY    54  50  87 N8        30.04F
WADENA         CLOUDY    54  48  82 N5        30.05S
GLENWOOD       DRIZZLE   55  52  88 N8        30.02F
APPLETON       CLOUDY    55  48  76 N13       30.01F
BENSON         CLOUDY    55  50  82 N12       30.03F
ORTONVILLE     CLOUDY    52  48  87 N9        30.03F
MADISON        CLOUDY    55  52  88 N9        30.03S
WILLMAR        LGT RAIN  57  54  88 N8        30.01F
$$
MNZ033>034-036-042>043-049>051-058-059-260100-
   Central Minnesota

CITY           SKY/WX    TMP DP  RH WIND       PRES   REMARKS
ST CLOUD       LGT RAIN  57  54  89 NE3       30.01S
6HR MIN TEMP:  56; 6HR MAX TEMP:  58; 6HR PCP: TRACE;

SAUK CENTRE    CLOUDY    56  51  82 N6        30.02F
PAYNESVILLE    LGT RAIN  56  54  91 N5        30.01F
AITKIN         CLOUDY    55  52  88 N3        30.03R
PINE RIVER     CLOUDY    54  46  76 N3        30.08S
BRAINERD       CLOUDY    56  52  86 N6        30.03S
STAPLES        CLOUDY    55  48  76 N6        30.05R
LITTLE FALLS   CLOUDY    55  46  71 CALM      30.03S
LITCHFIELD     RAIN      57  55  94 N8        30.00F
BUFFALO        LGT RAIN  57  53  86 N6        30.00F
MAPLE LAKE     CLOUDY    58  55  89 N9        30.01F
HUTCHINSON     DRIZZLE   58  56  94 N5        30.00R
$$
MNZ037-044-045-052-053-260100-
   East Central Minnesota

CITY           SKY/WX    TMP DP  RH WIND       PRES   REMARKS
PRINCETON      CLOUDY    57  55  94 N5        30.02R
MORA           CLOUDY    54  52  94 N3        30.02F
RUSH CITY      CLOUDY    57  54  87 N3        30.01S
MOOSE LAKE     CLOUDY    55  52  88 NE5       29.99F
HINCKLEY       CLOUDY    55  54  94 N5        30.01S
CLOQUET        CLOUDY    55  52  88 N3        30.01F
MCGREGOR       CLOUDY    55  52  88 N5        30.03S
$$
MNZ071>073-080-081-089-090-097-098-260100-
   Southwest Minnesota

CITY           SKY/WX    TMP DP  RH WIND       PRES   REMARKS
MONTEVIDEO     DRIZZLE   55  52  88 N7        30.02S
GRANITE FALLS  CLOUDY    57  54  90 NW5       30.03R
CANBY          CLOUDY    53  51  92 NW8       30.04R
MARSHALL       LGT RAIN  54  52  93 NW9       30.03R
REDWOOD FALLS  CLOUDY    57  54  89 N7        29.99S
OLIVIA         DRIZZLE   55  54  94 N7        29.99S
PIPESTONE      CLOUDY    54  52  94 NE9       30.00S
WORTHINGTON    LGT RAIN  54  54 100 N8        30.02R FOG
JACKSON        CLOUDY    55  54  94 CALM      30.00R
TRACY          DRIZZLE   55  55  99 N8        30.01S
SLAYTON        LGT RAIN  54  46  75 N7        30.01S
$$
MNZ065>067-074>077-082>085-091>093-260100-
   South Central Minnesota

CITY           SKY/WX    TMP DP  RH WIND       PRES   REMARKS
NEW ULM        CLOUDY    57  55  94 CALM      29.99R
ST JAMES       CLOUDY    57  55  94 N3        30.00S
FAIRMONT       CLOUDY    57  56  96 N8        29.98S
FARIBAULT      CLOUDY    61  57  88 N3        29.97F
OWATONNA       LGT RAIN  61  59  94 NE7       29.97R
WASECA         CLOUDY    59  57  94 NE5       29.98R
ALBERT LEA     HVY RAIN  64  63  94 NE5       29.98R
$$
MNZ078>079-086>088-094>096-260100-
   Southeast Minnesota

CITY           SKY/WX    TMP DP  RH WIND       PRES   REMARKS
ROCHESTER      HVY RAIN  64  62  93 N9        29.97R FOG
6HR MIN TEMP:  64; 6HR MAX TEMP:  79; 6HR PCP:  0.08;

RED WING       CLOUDY    63  57  82 N7        29.95F
STANTON        CLOUDY    62  58  87 N9        29.95F
DODGE CENTER   CLOUDY    63  59  88 N8        29.97R
WINONA         PTCLDY    73  68  83 CALM      29.93R
AUSTIN         TSTM      64  61  88 CALM      30.01R
PRESTON        CLOUDY    69  65  88 CALM      29.95S
$$
ABBREVIATIONS USED IN REMARKS
   TC - TEMPERATURES IN CELSIUS
  WCI - WIND CHILL INDEX
   HX - HEAT INDEX
  VSB - VISIBILITY
$$




USA.gov is the U.S. government's official web portal to all federal, state and local government web resources and services.